Corning, AR

4:35 AM CDT on September 27, 2016 (GMT -0500)
Corning

Weather History for K4M9 - October, 2011

Change the Weather History Date:

Monday, October 24, 2011

  Actual Average (KARG) Record (KARG)
Temperature  
Mean Temperature 62 °F -  
Max Temperature 77 °F 68 °F 82 °F (2000)
Min Temperature 46 °F 48 °F 33 °F (1999)
Degree Days  
Heating Degree Days 4    
Growing Degree Days 12 (Base 50)    
Moisture  
Dew Point 52 °F    
Average Humidity 79    
Maximum Humidity 100    
Minimum Humidity 44    
Precipitation  
Precipitation 0.00 in - - ()
Sea Level Pressure  
Sea Level Pressure 30.15 in    
Wind  
Wind Speed 6 mph (SSW)    
Max Wind Speed 12 mph    
Max Gust Speed -    
Visibility 1 miles    
Events Fog , Rain    
Averages and records for this station are not official NWS values.
T = Trace of Precipitation, MM = Missing Value Source: NWS Daily Summary

Daily Weather History Graph

Daily Weather History Graph

Search for Another Location

Airport or City:

Trip Planner

Search our weather history database for the weather conditions in past years. The results will help you decide how hot, cold, wet, or windy it might be!

Date:

Astronomy

Oct. 24, 2011 Rise Set
Actual Time 7:17 AM CDT 6:15 PM CDT
Civil Twilight 6:51 AM CDT 6:41 PM CDT
Nautical Twilight 6:21 AM CDT 7:11 PM CDT
Astronomical Twilight 5:51 AM CDT 7:41 PM CDT
Moon 4:40 AM CDT (10/24) 4:38 PM CDT (10/24)
Length of Visible Light 11h 50m
Length of Day
10h 57m
Waning Crescent, 7% of the Moon is Illuminated
Oct 24
Waning Crescent
Oct 26
New
Nov 2
First Quarter
Nov 10
Full
Nov 18
Last Quarter

Hourly Weather History & Observations

Time (CDT) Temp. Windchill Dew Point Humidity Pressure Visibility Wind Dir Wind Speed Gust Speed Precip Events Conditions
12:15 AM 50.0 °F - 50.0 °F 100% 30.12 in - SW 5.8 mph - N/A   Unknown
12:35 AM 50.0 °F - 50.0 °F 100% 30.12 in - SW 5.8 mph - N/A   Unknown
12:55 AM 50.0 °F - 50.0 °F 100% 30.12 in - WSW 6.9 mph - N/A   Unknown
1:15 AM 48.2 °F - 48.2 °F 100% 30.12 in - SW 8.1 mph - N/A   Unknown
1:35 AM 48.2 °F - 48.2 °F 100% 30.12 in - WSW 4.6 mph - N/A   Unknown
1:55 AM 48.2 °F - 48.2 °F 100% 30.12 in - SW 5.8 mph - N/A   Unknown
2:35 AM 46.4 °F 42.4 °F 46.4 °F 100% 30.11 in - SW 8.1 mph - N/A   Unknown
2:55 AM 48.2 °F - 48.2 °F 100% 30.10 in 1.0 mi SSW 6.9 mph - N/A   Clear
3:15 AM 46.4 °F 42.4 °F 46.4 °F 100% 30.11 in - SSW 8.1 mph - N/A   Unknown
3:35 AM 46.4 °F 43.5 °F 46.4 °F 100% 30.11 in 0.2 mi SW 5.8 mph - N/A Fog Fog
3:55 AM 48.2 °F - 48.2 °F 100% 30.11 in - SSW 5.8 mph - N/A   Unknown
4:15 AM 46.4 °F 42.9 °F 46.4 °F 100% 30.11 in - SSW 6.9 mph - N/A   Unknown
4:35 AM 48.2 °F - 48.2 °F 100% 30.12 in - WSW 5.8 mph - N/A   Unknown
4:55 AM 48.2 °F - 48.2 °F 100% 30.12 in - WSW 6.9 mph - N/A   Unknown
5:35 AM 48.2 °F - 48.2 °F 100% 30.13 in - SW 5.8 mph - N/A   Unknown
6:15 AM 48.2 °F - 48.2 °F 100% 30.13 in - SSW 6.9 mph - N/A   Unknown
6:35 AM 46.4 °F 44.3 °F 46.4 °F 100% 30.14 in - WSW 4.6 mph - N/A   Unknown
6:55 AM 46.4 °F 44.3 °F 46.4 °F 100% 30.16 in - WSW 4.6 mph - N/A   Unknown
7:35 AM 46.4 °F 42.9 °F 46.4 °F 100% 30.17 in - SW 6.9 mph - N/A   Unknown
8:15 AM 48.2 °F - 48.2 °F 100% 30.18 in - SW 6.9 mph - N/A   Unknown
8:35 AM 50.0 °F - 50.0 °F 100% 30.18 in - SW 9.2 mph - N/A   Unknown
8:55 AM 51.8 °F - 51.8 °F 100% 30.19 in - WSW 5.8 mph - N/A   Unknown
9:15 AM 53.6 °F - 53.6 °F 100% 30.20 in - WSW 6.9 mph - N/A   Unknown
9:35 AM 55.4 °F - 55.4 °F 100% 30.20 in - WSW 9.2 mph - N/A   Unknown
9:55 AM 55.4 °F - 55.4 °F 100% 30.19 in - SW 11.5 mph - N/A   Unknown
10:15 AM 59.0 °F - 55.4 °F 88% 30.19 in - SW 9.2 mph - N/A   Unknown
10:35 AM 60.8 °F - 55.4 °F 82% 30.19 in - WSW 8.1 mph - N/A   Clear
10:55 AM 62.6 °F - 55.4 °F 77% 30.20 in - WSW 8.1 mph - N/A   Clear
11:15 AM 64.4 °F - 55.4 °F 73% 30.20 in - WSW 5.8 mph - N/A   Clear
11:35 AM 66.2 °F - 55.4 °F 68% 30.20 in - WSW 5.8 mph - N/A   Clear
11:55 AM 68.0 °F - 55.4 °F 64% 30.20 in - SW 5.8 mph - N/A   Clear
12:15 PM 69.8 °F - 57.2 °F 64% 30.19 in - West 4.6 mph - N/A   Clear
12:35 PM 71.6 °F - 57.2 °F 60% 30.18 in - West 4.6 mph - N/A   Clear
12:55 PM 71.6 °F - 57.2 °F 60% 30.17 in - Calm Calm - N/A   Clear
1:15 PM 73.4 °F - 57.2 °F 57% 30.16 in - SSW 4.6 mph - N/A   Clear
1:35 PM 73.4 °F - 57.2 °F 57% 30.16 in - Calm Calm - N/A   Clear
1:55 PM 75.2 °F - 55.4 °F 50% 30.15 in - WNW 4.6 mph - N/A Rain Light Rain
2:35 PM 75.2 °F - 55.4 °F 50% 30.15 in - SSW 5.8 mph - N/A Rain Light Rain
2:55 PM 75.2 °F - 53.6 °F 47% 30.14 in - SSW 5.8 mph - N/A Rain Light Rain
3:15 PM 75.2 °F - 53.6 °F 47% 30.14 in - Calm Calm - N/A Rain Light Rain
3:35 PM 77.0 °F - 53.6 °F 44% 30.14 in - SE 3.5 mph - N/A Rain Light Rain
3:55 PM 77.0 °F - 53.6 °F 44% 30.14 in - South 3.5 mph - N/A Rain Light Rain
4:15 PM 75.2 °F - 55.4 °F 50% 30.14 in - SE 5.8 mph - N/A Rain Light Rain
4:55 PM 75.2 °F - 53.6 °F 47% 30.15 in - SE 8.1 mph - N/A   Clear
5:15 PM 73.4 °F - 53.6 °F 50% 30.15 in - SE 6.9 mph - N/A Rain Light Rain
5:35 PM 71.6 °F - 53.6 °F 53% 30.14 in 1.2 mi ESE 9.2 mph - N/A   Haze
5:55 PM 68.0 °F - 51.8 °F 56% 30.15 in - ESE 8.1 mph - N/A   Clear
6:15 PM 64.4 °F - 51.8 °F 64% 30.15 in - SE 8.1 mph - N/A   Clear
6:35 PM 64.4 °F - 51.8 °F 64% 30.16 in - South 5.8 mph - N/A   Clear
6:55 PM 62.6 °F - 53.6 °F 72% 30.16 in - South 5.8 mph - N/A   Clear
7:15 PM 62.6 °F - 51.8 °F 68% 30.17 in - South 6.9 mph - N/A   Clear
7:35 PM 62.6 °F - 51.8 °F 68% 30.17 in - South 6.9 mph - N/A   Clear
7:55 PM 59.0 °F - 51.8 °F 77% 30.17 in - South 6.9 mph - N/A   Clear
8:15 PM 59.0 °F - 51.8 °F 77% 30.18 in - SSW 9.2 mph - N/A   Clear
8:35 PM 57.2 °F - 50.0 °F 77% 30.18 in - South 6.9 mph - N/A   Clear
8:55 PM 59.0 °F - 53.6 °F 82% 30.18 in - South 5.8 mph - N/A   Clear
9:35 PM 59.0 °F - 55.4 °F 88% 30.19 in - SSW 8.1 mph - N/A   Unknown
9:55 PM 59.0 °F - 55.4 °F 88% 30.19 in - SSW 8.1 mph - N/A   Unknown
10:15 PM 57.2 °F - 55.4 °F 94% 30.18 in - South 6.9 mph - N/A   Unknown
10:35 PM 59.0 °F - 57.2 °F 94% 30.18 in - South 6.9 mph - N/A   Unknown
10:55 PM 59.0 °F - 55.4 °F 88% 30.18 in - South 6.9 mph - N/A   Unknown
11:15 PM 59.0 °F - 55.4 °F 88% 30.18 in - South 6.9 mph - N/A   Unknown
11:35 PM 59.0 °F - 55.4 °F 88% 30.18 in - South 8.1 mph - N/A   Unknown